Time,TemperatureF,DewpointF,PressureIn,WindDirection,WindDirectionDegrees,WindSpeedMPH,WindSpeedGustMPH,Humidity,HourlyPrecipIn,Conditions,Clouds,dailyrainin,SoftwareType,DateUTC
2013-08-12 00:01:00,66.2,58.1,30.23,NNE,22,4.0,5.0,75,0.00,,,0.00,meteohub,2013-08-12 04:01:00,
2013-08-12 00:04:00,66.2,58.1,30.23,WNW,292,3.0,5.0,75,0.00,,,0.00,meteohub,2013-08-12 04:04:00,
2013-08-12 00:09:00,66.4,57.4,30.23,NNE,22,5.0,5.0,73,0.00,,,0.00,meteohub,2013-08-12 04:09:00,
2013-08-12 00:14:00,66.6,57.2,30.23,North,0,4.0,6.0,72,0.00,,,0.00,meteohub,2013-08-12 04:14:00,
2013-08-12 00:19:00,66.4,57.0,30.23,WNW,292,4.0,7.0,72,0.00,,,0.00,meteohub,2013-08-12 04:19:00,
2013-08-12 00:24:00,66.4,57.0,30.23,WNW,292,3.0,7.0,72,0.00,,,0.00,meteohub,2013-08-12 04:24:00,
2013-08-12 00:29:00,66.4,57.4,30.19,WNW,292,3.0,7.0,73,0.00,,,0.00,meteohub,2013-08-12 04:29:00,
2013-08-12 00:34:00,66.4,57.4,30.19,WNW,292,4.0,5.0,73,0.00,,,0.00,meteohub,2013-08-12 04:34:00,
2013-08-12 00:39:00,66.4,57.9,30.19,NW,315,4.0,5.0,74,0.00,,,0.00,meteohub,2013-08-12 04:39:00,
2013-08-12 00:44:00,66.2,57.7,30.23,NW,315,3.0,5.0,74,0.00,,,0.00,meteohub,2013-08-12 04:44:00,
2013-08-12 00:49:00,66.4,57.9,30.23,NW,315,2.0,5.0,74,0.00,,,0.00,meteohub,2013-08-12 04:49:00,
2013-08-12 00:54:00,66.4,58.3,30.23,NW,315,2.0,5.0,75,0.00,,,0.00,meteohub,2013-08-12 04:54:00,
2013-08-12 00:59:00,66.4,58.3,30.19,WNW,292,4.0,5.0,75,0.00,,,0.00,meteohub,2013-08-12 04:59:00,
2013-08-12 01:04:00,66.4,58.3,30.19,NW,315,3.0,5.0,75,0.00,,,0.00,meteohub,2013-08-12 05:04:00,
2013-08-12 01:09:00,66.4,58.3,30.19,NW,315,4.0,5.0,75,0.00,,,0.00,meteohub,2013-08-12 05:09:00,
2013-08-12 01:14:00,66.4,58.6,30.19,WNW,292,4.0,6.0,76,0.00,,,0.00,meteohub,2013-08-12 05:14:00,
2013-08-12 01:19:00,66.6,58.8,30.19,NW,315,4.0,6.0,76,0.00,,,0.00,meteohub,2013-08-12 05:19:00,
2013-08-12 01:24:00,66.6,58.5,30.19,NW,315,2.0,6.0,75,0.00,,,0.00,meteohub,2013-08-12 05:24:00,
2013-08-12 01:29:00,66.6,58.5,30.19,NW,315,4.0,6.0,75,0.00,,,0.00,meteohub,2013-08-12 05:29:00,
2013-08-12 01:34:00,66.7,58.6,30.19,NW,315,3.0,6.0,75,0.00,,,0.00,meteohub,2013-08-12 05:34:00,
2013-08-12 01:39:00,66.9,58.8,30.19,WNW,292,2.0,5.0,75,0.00,,,0.00,meteohub,2013-08-12 05:39:00,
2013-08-12 01:44:00,66.9,58.3,30.19,WSW,248,2.0,5.0,74,0.00,,,0.00,meteohub,2013-08-12 05:44:00,
2013-08-12 01:49:00,66.9,57.9,30.19,NW,315,3.0,6.0,73,0.00,,,0.00,meteohub,2013-08-12 05:49:00,
2013-08-12 01:54:00,66.9,57.6,30.19,WNW,292,2.0,6.0,72,0.00,,,0.00,meteohub,2013-08-12 05:54:00,
2013-08-12 01:59:00,66.9,57.6,30.19,SSW,202,3.0,6.0,72,0.00,,,0.00,meteohub,2013-08-12 05:59:00,
2013-08-12 02:04:00,66.7,57.4,30.19,WNW,292,3.0,4.0,72,0.00,,,0.00,meteohub,2013-08-12 06:04:00,
2013-08-12 02:09:00,66.7,57.4,30.19,NE,45,2.0,5.0,72,0.00,,,0.00,meteohub,2013-08-12 06:09:00,
2013-08-12 02:14:00,66.6,57.2,30.19,NW,315,2.0,5.0,72,0.00,,,0.00,meteohub,2013-08-12 06:14:00,
2013-08-12 02:19:00,66.4,57.0,30.19,NW,315,3.0,4.0,72,0.00,,,0.00,meteohub,2013-08-12 06:19:00,
2013-08-12 02:24:00,66.0,57.6,30.20,WNW,292,2.0,5.0,74,0.00,,,0.00,meteohub,2013-08-12 06:24:00,
2013-08-12 02:29:00,65.8,57.7,30.20,WNW,292,2.0,5.0,75,0.00,,,0.00,meteohub,2013-08-12 06:29:00,
2013-08-12 02:34:00,65.7,57.6,30.20,NW,315,3.0,4.0,75,0.00,,,0.00,meteohub,2013-08-12 06:34:00,
2013-08-12 02:39:00,65.7,57.9,30.20,NW,315,3.0,4.0,76,0.00,,,0.00,meteohub,2013-08-12 06:39:00,
2013-08-12 02:44:00,65.7,58.3,30.20,NW,315,2.0,4.0,77,0.00,,,0.00,meteohub,2013-08-12 06:44:00,
2013-08-12 02:49:00,65.5,58.1,30.20,NW,315,2.0,4.0,77,0.00,,,0.00,meteohub,2013-08-12 06:49:00,
2013-08-12 02:54:00,65.5,58.5,30.20,WNW,292,3.0,4.0,78,0.00,,,0.00,meteohub,2013-08-12 06:54:00,
2013-08-12 02:59:00,65.7,59.0,30.20,NNE,22,3.0,3.0,79,0.00,,,0.00,meteohub,2013-08-12 06:59:00,
2013-08-12 03:04:00,65.8,59.2,30.20,NW,315,2.0,4.0,79,0.00,,,0.00,meteohub,2013-08-12 07:04:00,
2013-08-12 03:09:00,65.8,59.2,30.20,WNW,292,2.0,4.0,79,0.00,,,0.00,meteohub,2013-08-12 07:09:00,
2013-08-12 03:14:00,65.8,59.2,30.20,North,0,3.0,4.0,79,0.00,,,0.00,meteohub,2013-08-12 07:14:00,
2013-08-12 03:19:00,66.0,59.4,30.20,WNW,292,2.0,4.0,79,0.00,,,0.00,meteohub,2013-08-12 07:19:00,
2013-08-12 03:24:00,66.0,59.4,30.20,NW,315,4.0,5.0,79,0.00,,,0.00,meteohub,2013-08-12 07:24:00,
2013-08-12 03:29:00,66.0,59.4,30.17,NW,315,4.0,5.0,79,0.00,,,0.00,meteohub,2013-08-12 07:29:00,
2013-08-12 03:34:00,66.2,59.2,30.16,WNW,292,4.0,5.0,78,0.00,,,0.00,meteohub,2013-08-12 07:34:00,
2013-08-12 03:39:00,66.2,58.8,30.16,NNW,338,3.0,5.0,77,0.00,,,0.00,meteohub,2013-08-12 07:39:00,
2013-08-12 03:44:00,66.4,58.6,30.16,WNW,292,4.0,5.0,76,0.00,,,0.00,meteohub,2013-08-12 07:44:00,
2013-08-12 03:49:00,66.4,58.3,30.16,WNW,292,2.0,5.0,75,0.00,,,0.00,meteohub,2013-08-12 07:49:00,
2013-08-12 03:54:00,66.4,57.9,30.16,WNW,292,3.0,5.0,74,0.00,,,0.00,meteohub,2013-08-12 07:54:00,
2013-08-12 03:59:00,66.2,57.7,30.16,NNW,338,3.0,5.0,74,0.00,,,0.00,meteohub,2013-08-12 07:59:00,
2013-08-12 04:04:00,66.2,57.7,30.16,WNW,292,3.0,4.0,74,0.00,,,0.00,meteohub,2013-08-12 08:04:00,
2013-08-12 04:09:00,66.2,57.7,30.16,NW,315,4.0,4.0,74,0.00,,,0.00,meteohub,2013-08-12 08:09:00,
2013-08-12 04:14:00,66.2,57.7,30.16,NW,315,3.0,5.0,74,0.00,,,0.00,meteohub,2013-08-12 08:14:00,
2013-08-12 04:19:00,66.4,57.9,30.16,WNW,292,3.0,5.0,74,0.00,,,0.00,meteohub,2013-08-12 08:19:00,
2013-08-12 04:24:00,66.2,57.7,30.16,WNW,292,1.0,5.0,74,0.00,,,0.00,meteohub,2013-08-12 08:24:00,
2013-08-12 04:29:00,66.2,57.7,30.16,NW,315,3.0,6.0,74,0.00,,,0.00,meteohub,2013-08-12 08:29:00,
2013-08-12 04:34:00,66.2,57.7,30.16,WSW,248,4.0,6.0,74,0.00,,,0.00,meteohub,2013-08-12 08:34:00,
2013-08-12 04:39:00,66.2,57.4,30.16,WNW,292,1.0,6.0,73,0.00,,,0.00,meteohub,2013-08-12 08:39:00,
2013-08-12 04:44:00,66.4,57.4,30.19,WNW,292,3.0,6.0,73,0.00,,,0.00,meteohub,2013-08-12 08:44:00,
2013-08-12 04:49:00,66.4,57.0,30.19,North,0,3.0,5.0,72,0.00,,,0.00,meteohub,2013-08-12 08:49:00,
2013-08-12 04:54:00,66.4,57.0,30.19,NW,315,2.0,5.0,72,0.00,,,0.00,meteohub,2013-08-12 08:54:00,
2013-08-12 04:59:00,66.4,57.0,30.16,NW,315,4.0,5.0,72,0.00,,,0.00,meteohub,2013-08-12 08:59:00,
2013-08-12 05:04:00,66.2,56.8,30.16,WNW,292,4.0,5.0,72,0.00,,,0.00,meteohub,2013-08-12 09:04:00,
2013-08-12 05:09:00,66.2,56.8,30.16,NW,315,4.0,5.0,72,0.00,,,0.00,meteohub,2013-08-12 09:09:00,
2013-08-12 05:14:00,66.2,57.4,30.16,WNW,292,3.0,5.0,73,0.00,,,0.00,meteohub,2013-08-12 09:14:00,
2013-08-12 05:19:00,66.2,57.4,30.16,NW,315,3.0,5.0,73,0.00,,,0.00,meteohub,2013-08-12 09:19:00,
2013-08-12 05:24:00,66.2,57.4,30.16,WNW,292,6.0,6.0,73,0.00,,,0.00,meteohub,2013-08-12 09:24:00,
2013-08-12 05:29:00,66.0,57.2,30.17,WNW,292,3.0,6.0,73,0.00,,,0.00,meteohub,2013-08-12 09:29:00,
2013-08-12 05:34:00,66.0,57.6,30.17,WNW,292,3.0,6.0,74,0.00,,,0.00,meteohub,2013-08-12 09:34:00,
2013-08-12 05:39:00,66.0,57.2,30.17,NW,315,3.0,6.0,73,0.00,,,0.00,meteohub,2013-08-12 09:39:00,
2013-08-12 05:44:00,65.8,57.0,30.17,WNW,292,5.0,5.0,73,0.00,,,0.00,meteohub,2013-08-12 09:44:00,
2013-08-12 05:51:00,65.8,57.0,30.17,WNW,292,3.0,5.0,73,0.00,,,0.00,meteohub,2013-08-12 09:51:00,
2013-08-12 05:56:00,65.8,57.0,30.17,WNW,292,3.0,5.0,73,0.00,,,0.00,meteohub,2013-08-12 09:56:00,
2013-08-12 06:01:00,65.7,57.2,30.17,NNW,338,2.0,5.0,74,0.00,,,0.00,meteohub,2013-08-12 10:01:00,
2013-08-12 06:06:00,65.8,57.4,30.17,SW,225,1.0,5.0,74,0.00,,,0.00,meteohub,2013-08-12 10:06:00,
2013-08-12 06:11:00,65.8,57.4,30.20,SSE,158,2.0,4.0,74,0.00,,,0.00,meteohub,2013-08-12 10:11:00,
2013-08-12 06:16:00,66.0,57.6,30.20,ESE,112,0.0,5.0,74,0.00,,,0.00,meteohub,2013-08-12 10:16:00,
2013-08-12 06:21:00,66.0,57.2,30.20,SSE,158,0.0,5.0,73,0.00,,,0.00,meteohub,2013-08-12 10:21:00,
2013-08-12 06:26:00,66.0,57.2,30.20,WNW,292,2.0,4.0,73,0.00,,,0.00,meteohub,2013-08-12 10:26:00,
2013-08-12 06:31:00,65.8,57.0,30.20,SE,135,1.0,4.0,73,0.00,,,0.00,meteohub,2013-08-12 10:31:00,
2013-08-12 06:36:00,65.8,57.0,30.20,SSW,202,0.0,4.0,73,0.00,,,0.00,meteohub,2013-08-12 10:36:00,
2013-08-12 06:41:00,65.8,57.0,30.20,South,180,0.0,3.0,73,0.00,,,0.00,meteohub,2013-08-12 10:41:00,
2013-08-12 06:46:00,65.7,56.8,30.20,SSE,158,1.0,3.0,73,0.00,,,0.00,meteohub,2013-08-12 10:46:00,
2013-08-12 06:51:00,65.7,57.2,30.20,SSE,158,0.0,3.0,74,0.00,,,0.00,meteohub,2013-08-12 10:51:00,
2013-08-12 06:56:00,65.7,57.2,30.20,South,180,0.0,3.0,74,0.00,,,0.00,meteohub,2013-08-12 10:56:00,
2013-08-12 07:01:00,65.7,57.2,30.20,NE,45,0.0,2.0,74,0.00,,,0.00,meteohub,2013-08-12 11:01:00,
2013-08-12 07:06:00,65.7,57.2,30.20,SSE,158,1.0,2.0,74,0.00,,,0.00,meteohub,2013-08-12 11:06:00,
2013-08-12 07:11:00,65.7,57.2,30.20,ESE,112,1.0,3.0,74,0.00,,,0.00,meteohub,2013-08-12 11:11:00,
2013-08-12 07:16:00,65.7,57.2,30.20,SSE,158,3.0,3.0,74,0.00,,,0.00,meteohub,2013-08-12 11:16:00,
2013-08-12 07:21:00,66.0,57.6,30.20,NNW,338,2.0,3.0,74,0.00,,,0.00,meteohub,2013-08-12 11:21:00,
2013-08-12 07:26:00,66.2,57.7,30.20,North,-999,-999.0,4.0,74,0.00,,,0.00,meteohub,2013-08-12 11:26:00,
2013-08-12 07:31:00,66.4,57.4,30.19,NW,315,2.0,4.0,73,0.00,,,0.00,meteohub,2013-08-12 11:31:00,
2013-08-12 07:36:00,66.4,57.0,30.19,North,-999,-999.0,2.0,72,0.00,,,0.00,meteohub,2013-08-12 11:36:00,
2013-08-12 07:41:00,66.6,57.2,30.19,WNW,292,3.0,3.0,72,0.00,,,0.00,meteohub,2013-08-12 11:41:00,
2013-08-12 07:46:00,66.9,57.6,30.19,West,270,2.0,3.0,72,0.00,,,0.00,meteohub,2013-08-12 11:46:00,
2013-08-12 07:51:00,67.1,57.7,30.19,North,-999,-999.0,3.0,72,0.00,,,0.00,meteohub,2013-08-12 11:51:00,
2013-08-12 07:56:00,66.9,57.2,30.19,North,-999,-999.0,3.0,71,0.00,,,0.00,meteohub,2013-08-12 11:56:00,
2013-08-12 08:01:00,67.1,57.4,30.19,North,-999,-999.0,-999.0,71,0.00,,,0.00,meteohub,2013-08-12 12:01:00,
2013-08-12 08:06:00,67.5,57.7,30.19,North,-999,-999.0,-999.0,71,0.00,,,0.00,meteohub,2013-08-12 12:06:00,
2013-08-12 08:11:00,67.5,57.7,30.19,North,-999,-999.0,-999.0,71,0.00,,,0.00,meteohub,2013-08-12 12:11:00,
2013-08-12 08:16:00,67.5,57.4,30.19,North,-999,-999.0,-999.0,70,0.00,,,0.00,meteohub,2013-08-12 12:16:00,
2013-08-12 08:22:00,67.6,57.6,30.19,North,-999,-999.0,-999.0,70,0.00,,,0.00,meteohub,2013-08-12 12:22:00,
2013-08-12 08:27:00,67.8,58.1,30.19,North,-999,-999.0,-999.0,71,0.00,,,0.00,meteohub,2013-08-12 12:27:00,
2013-08-12 08:32:00,67.8,58.1,30.19,North,-999,-999.0,-999.0,71,-99.99,,,0.00,meteohub,2013-08-12 12:32:00,
2013-08-12 08:37:00,67.8,58.1,30.19,North,-999,-999.0,-999.0,71,-99.99,,,0.00,meteohub,2013-08-12 12:37:00,
2013-08-12 08:42:00,68.2,58.8,30.18,NNE,22,3.0,-999.0,72,-99.99,,,0.00,meteohub,2013-08-12 12:42:00,
2013-08-12 08:47:00,68.5,59.2,30.18,NNW,338,3.0,3.0,72,-99.99,,,0.00,meteohub,2013-08-12 12:47:00,
2013-08-12 08:52:00,68.9,59.5,30.18,South,180,0.0,3.0,72,-99.99,,,0.00,meteohub,2013-08-12 12:52:00,
2013-08-12 08:57:00,69.3,59.5,30.17,SE,135,4.0,4.0,71,-99.99,,,0.00,meteohub,2013-08-12 12:57:00,
2013-08-12 09:02:00,69.4,59.2,30.17,WSW,248,2.0,4.0,70,-99.99,,,0.00,meteohub,2013-08-12 13:02:00,
2013-08-12 09:07:00,69.6,59.4,30.17,ESE,112,3.0,4.0,70,-99.99,,,0.00,meteohub,2013-08-12 13:07:00,
2013-08-12 09:12:00,69.6,59.0,30.17,WSW,248,2.0,4.0,69,-99.99,,,0.00,meteohub,2013-08-12 13:12:00,
2013-08-12 09:17:00,70.2,59.2,30.17,South,180,1.0,4.0,68,-99.99,,,0.00,meteohub,2013-08-12 13:17:00,
2013-08-12 09:22:00,70.7,59.5,30.16,NE,45,2.0,4.0,68,-99.99,,,0.00,meteohub,2013-08-12 13:22:00,
2013-08-12 09:27:00,71.1,59.5,30.16,WNW,292,2.0,3.0,67,0.00,,,0.00,meteohub,2013-08-12 13:27:00,
2013-08-12 09:32:00,71.4,59.0,30.16,NW,315,3.0,4.0,65,0.00,,,0.00,meteohub,2013-08-12 13:32:00,
2013-08-12 09:37:00,71.2,57.9,30.16,NNW,338,1.0,4.0,63,0.00,,,0.00,meteohub,2013-08-12 13:37:00,
2013-08-12 09:42:00,71.1,56.5,30.16,NW,315,2.0,4.0,60,0.00,,,0.00,meteohub,2013-08-12 13:42:00,
2013-08-12 09:47:00,70.9,55.8,30.16,NNW,338,1.0,4.0,59,0.00,,,0.00,meteohub,2013-08-12 13:47:00,
2013-08-12 09:52:00,71.1,56.5,30.16,ENE,68,2.0,3.0,60,0.00,,,0.00,meteohub,2013-08-12 13:52:00,
2013-08-12 09:57:00,71.2,57.0,30.16,WNW,292,2.0,3.0,61,0.00,,,0.00,meteohub,2013-08-12 13:57:00,
2013-08-12 10:03:00,71.4,56.3,30.16,SW,225,1.0,4.0,59,0.00,,,0.00,meteohub,2013-08-12 14:03:00,
2013-08-12 10:08:00,71.6,55.6,30.16,WNW,292,2.0,4.0,57,0.00,,,0.00,meteohub,2013-08-12 14:08:00,
2013-08-12 10:13:00,71.6,55.0,30.16,West,270,0.0,4.0,56,0.00,,,0.00,meteohub,2013-08-12 14:13:00,
2013-08-12 10:18:00,72.3,56.3,30.15,NNE,22,1.0,3.0,57,0.00,,,0.00,meteohub,2013-08-12 14:18:00,
2013-08-12 10:24:00,74.3,57.0,30.14,North,0,3.0,3.0,55,0.00,,,0.00,meteohub,2013-08-12 14:24:00,
2013-08-12 10:36:00,74.8,52.7,30.17,NW,315,2.0,4.0,46,0.00,,,0.00,meteohub,2013-08-12 14:36:00,
2013-08-12 10:40:00,74.7,53.1,30.17,WNW,292,2.0,5.0,47,0.00,,,0.00,meteohub,2013-08-12 14:40:00,
2013-08-12 10:46:00,76.3,54.0,30.16,NNW,338,2.0,5.0,46,0.00,,,0.00,meteohub,2013-08-12 14:46:00,
2013-08-12 10:51:00,76.8,52.7,30.15,ENE,68,2.0,4.0,43,0.00,,,0.00,meteohub,2013-08-12 14:51:00,
2013-08-12 10:56:00,76.6,53.1,30.15,North,-999,-999.0,2.0,44,0.00,,,0.00,meteohub,2013-08-12 14:56:00,
2013-08-12 11:01:00,76.3,52.2,30.16,ENE,68,1.0,2.0,43,0.00,,,0.00,meteohub,2013-08-12 15:01:00,
2013-08-12 11:06:00,75.6,51.4,30.16,North,-999,-999.0,1.0,43,0.00,,,0.00,meteohub,2013-08-12 15:06:00,
2013-08-12 11:11:00,76.8,52.0,30.15,West,270,1.0,1.0,42,0.00,,,0.00,meteohub,2013-08-12 15:11:00,
2013-08-12 11:16:00,77.5,52.7,30.15,North,0,2.0,2.0,42,0.00,,,0.00,meteohub,2013-08-12 15:16:00,
2013-08-12 11:21:00,77.2,51.6,30.15,North,-999,-999.0,2.0,41,0.00,,,0.00,meteohub,2013-08-12 15:21:00,
2013-08-12 11:26:00,76.8,52.0,30.15,SSE,158,3.0,3.0,42,0.00,,,0.00,meteohub,2013-08-12 15:26:00,
2013-08-12 11:31:00,76.5,51.6,30.15,North,-999,-999.0,3.0,42,0.00,,,0.00,meteohub,2013-08-12 15:31:00,
2013-08-12 11:36:00,77.5,53.2,30.15,North,-999,-999.0,3.0,43,0.00,,,0.00,meteohub,2013-08-12 15:36:00,
2013-08-12 11:41:00,78.3,52.0,30.14,North,-999,-999.0,3.0,40,0.00,,,0.00,meteohub,2013-08-12 15:41:00,
2013-08-12 11:46:00,77.5,51.3,30.15,North,-999,-999.0,-999.0,40,0.00,,,0.00,meteohub,2013-08-12 15:46:00,
2013-08-12 11:51:00,78.1,51.1,30.14,North,0,1.0,1.0,39,0.00,,,0.00,meteohub,2013-08-12 15:51:00,
2013-08-12 11:56:00,76.8,51.3,30.15,North,-999,-999.0,1.0,41,0.00,,,0.00,meteohub,2013-08-12 15:56:00,
2013-08-12 12:01:00,77.7,52.2,30.14,NW,315,1.0,1.0,41,0.00,,,0.00,meteohub,2013-08-12 16:01:00,
2013-08-12 12:06:00,78.6,53.6,30.14,North,0,2.0,2.0,42,0.00,,,0.00,meteohub,2013-08-12 16:06:00,
2013-08-12 12:11:00,79.3,53.6,30.13,NNW,338,3.0,4.0,41,0.00,,,0.00,meteohub,2013-08-12 16:11:00,
2013-08-12 12:16:00,80.1,54.3,30.13,NW,315,3.0,4.0,41,0.00,,,0.00,meteohub,2013-08-12 16:16:00,
2013-08-12 12:21:00,80.4,52.5,30.13,NW,315,3.0,4.0,38,0.00,,,0.00,meteohub,2013-08-12 16:21:00,
2013-08-12 12:26:00,79.9,49.8,30.13,WNW,292,3.0,4.0,35,0.00,,,0.00,meteohub,2013-08-12 16:26:00,
2013-08-12 12:31:00,78.6,49.5,30.14,NW,315,2.0,4.0,36,0.00,,,0.00,meteohub,2013-08-12 16:31:00,
2013-08-12 12:36:00,77.7,49.5,30.14,West,270,4.0,4.0,37,0.00,,,0.00,meteohub,2013-08-12 16:36:00,
2013-08-12 12:41:00,76.8,50.7,30.15,North,-999,-999.0,4.0,40,0.00,,,0.00,meteohub,2013-08-12 16:41:00,
2013-08-12 12:46:00,76.3,48.7,30.16,ESE,112,3.0,4.0,38,0.00,,,0.00,meteohub,2013-08-12 16:46:00,
2013-08-12 12:51:00,75.9,50.5,30.16,WSW,248,1.0,4.0,41,0.00,,,0.00,meteohub,2013-08-12 16:51:00,
2013-08-12 12:56:00,75.7,48.4,30.16,WNW,292,2.0,3.0,38,0.00,,,0.00,meteohub,2013-08-12 16:56:00,
2013-08-12 13:01:00,75.7,49.6,30.16,WNW,292,1.0,2.0,40,0.00,,,0.00,meteohub,2013-08-12 17:01:00,
2013-08-12 13:06:00,76.6,52.5,30.15,ENE,68,2.0,2.0,43,0.00,,,0.00,meteohub,2013-08-12 17:06:00,
2013-08-12 13:11:00,77.0,51.4,30.15,SSE,158,2.0,2.0,41,0.00,,,0.00,meteohub,2013-08-12 17:11:00,
2013-08-12 13:16:00,78.6,52.3,30.14,ESE,112,1.0,3.0,40,0.00,,,0.00,meteohub,2013-08-12 17:16:00,
2013-08-12 13:21:00,79.0,52.0,30.14,South,180,2.0,3.0,39,0.00,,,0.00,meteohub,2013-08-12 17:21:00,
2013-08-12 13:26:00,80.4,54.0,30.13,NNE,22,2.0,3.0,40,0.00,,,0.00,meteohub,2013-08-12 17:26:00,
2013-08-12 13:31:00,80.8,51.3,30.12,NW,315,2.0,4.0,36,0.00,,,0.00,meteohub,2013-08-12 17:31:00,
2013-08-12 13:36:00,81.1,53.1,30.12,SSE,158,3.0,4.0,38,0.00,,,0.00,meteohub,2013-08-12 17:36:00,
2013-08-12 13:41:00,82.2,54.1,30.08,ESE,112,3.0,5.0,38,0.00,,,0.00,meteohub,2013-08-12 17:41:00,
2013-08-12 13:46:00,81.7,51.4,30.08,SE,135,3.0,5.0,35,0.00,,,0.00,meteohub,2013-08-12 17:46:00,
2013-08-12 13:51:00,80.8,51.3,30.09,South,180,1.0,5.0,36,0.00,,,0.00,meteohub,2013-08-12 17:51:00,
2013-08-12 13:56:00,79.0,49.8,30.10,SSE,158,2.0,5.0,36,0.00,,,0.00,meteohub,2013-08-12 17:56:00,
2013-08-12 14:01:00,79.2,52.7,30.10,ESE,112,3.0,4.0,40,0.00,,,0.00,meteohub,2013-08-12 18:01:00,
2013-08-12 14:06:00,80.8,54.1,30.09,SSE,158,2.0,4.0,40,0.00,,,0.00,meteohub,2013-08-12 18:06:00,
2013-08-12 14:11:00,81.0,54.3,30.09,SE,135,3.0,5.0,40,0.00,,,0.00,meteohub,2013-08-12 18:11:00,
2013-08-12 14:16:00,80.1,53.6,30.09,SSE,158,1.0,5.0,40,0.00,,,0.00,meteohub,2013-08-12 18:16:00,
2013-08-12 14:21:00,78.8,53.1,30.10,SSE,158,2.0,5.0,41,0.00,,,0.00,meteohub,2013-08-12 18:21:00,
2013-08-12 14:26:00,78.1,51.8,30.11,NW,315,2.0,5.0,40,0.00,,,0.00,meteohub,2013-08-12 18:26:00,
2013-08-12 14:31:00,77.7,51.4,30.11,SSE,158,0.0,5.0,40,0.00,,,0.00,meteohub,2013-08-12 18:31:00,
2013-08-12 14:36:00,77.5,51.3,30.11,SSE,158,0.0,2.0,40,0.00,,,0.00,meteohub,2013-08-12 18:36:00,
2013-08-12 14:42:00,77.0,50.9,30.12,WSW,248,0.0,3.0,40,0.00,,,0.00,meteohub,2013-08-12 18:42:00,
2013-08-12 14:47:00,80.6,54.1,30.09,SSE,158,1.0,3.0,40,0.00,,,0.00,meteohub,2013-08-12 18:47:00,
2013-08-12 14:52:00,83.5,55.2,30.07,North,-999,-999.0,3.0,38,0.00,,,0.00,meteohub,2013-08-12 18:52:00,
2013-08-12 14:57:00,85.1,55.9,30.02,North,-999,-999.0,2.0,37,0.00,,,0.00,meteohub,2013-08-12 18:57:00,
2013-08-12 15:02:00,85.8,52.5,30.02,NW,315,3.0,3.0,32,0.00,,,0.00,meteohub,2013-08-12 19:02:00,
2013-08-12 15:07:00,84.4,50.5,30.03,WSW,248,2.0,4.0,31,0.00,,,0.00,meteohub,2013-08-12 19:07:00,
2013-08-12 15:12:00,82.2,50.2,30.04,North,0,2.0,4.0,33,0.00,,,0.00,meteohub,2013-08-12 19:12:00,
2013-08-12 15:17:00,80.4,49.5,30.06,South,180,1.0,4.0,34,0.00,,,0.00,meteohub,2013-08-12 19:17:00,
2013-08-12 15:22:00,81.3,50.4,30.05,WNW,292,0.0,3.0,34,0.00,,,0.00,meteohub,2013-08-12 19:22:00,
2013-08-12 15:27:00,81.1,49.3,30.05,SSW,202,0.0,4.0,33,0.00,,,0.00,meteohub,2013-08-12 19:27:00,
2013-08-12 15:32:00,81.0,50.0,30.05,SSE,158,0.0,4.0,34,0.00,,,0.00,meteohub,2013-08-12 19:32:00,
2013-08-12 15:37:00,80.8,49.8,30.06,SSE,158,3.0,4.0,34,0.00,,,0.00,meteohub,2013-08-12 19:37:00,
2013-08-12 15:42:00,82.6,51.4,30.04,West,270,1.0,4.0,34,0.00,,,0.00,meteohub,2013-08-12 19:42:00,
2013-08-12 15:47:00,84.7,52.5,30.03,SSW,202,0.0,4.0,33,0.00,,,0.00,meteohub,2013-08-12 19:47:00,
2013-08-12 15:52:00,85.8,52.5,30.02,NW,315,2.0,4.0,32,0.00,,,0.00,meteohub,2013-08-12 19:52:00,
2013-08-12 15:57:00,86.0,51.8,30.02,SSE,158,2.0,3.0,31,0.00,,,0.00,meteohub,2013-08-12 19:57:00,
2013-08-12 16:02:00,85.1,51.1,30.02,NNE,22,3.0,4.0,31,0.00,,,0.00,meteohub,2013-08-12 20:02:00,
2013-08-12 16:07:00,83.5,49.6,30.04,NW,315,2.0,4.0,31,0.00,,,0.00,meteohub,2013-08-12 20:07:00,
2013-08-12 16:12:00,82.6,49.8,30.04,NW,315,2.0,4.0,32,0.00,,,0.00,meteohub,2013-08-12 20:12:00,
2013-08-12 16:17:00,82.4,49.6,30.04,WNW,292,2.0,4.0,32,0.00,,,0.00,meteohub,2013-08-12 20:17:00,
2013-08-12 16:22:00,81.7,49.8,30.05,ESE,112,3.0,3.0,33,0.00,,,0.00,meteohub,2013-08-12 20:22:00,
2013-08-12 16:27:00,80.6,48.9,30.06,West,270,0.0,3.0,33,0.00,,,0.00,meteohub,2013-08-12 20:27:00,
2013-08-12 16:32:00,79.7,48.0,30.06,SSW,202,0.0,3.0,33,0.00,,,0.00,meteohub,2013-08-12 20:32:00,
2013-08-12 16:37:00,79.3,48.6,30.06,East,90,0.0,3.0,34,0.00,,,0.00,meteohub,2013-08-12 20:37:00,
2013-08-12 16:42:00,79.2,50.7,30.07,South,180,1.0,3.0,37,0.00,,,0.00,meteohub,2013-08-12 20:42:00,
2013-08-12 16:47:00,78.8,50.4,30.07,ENE,68,1.0,5.0,37,0.00,,,0.00,meteohub,2013-08-12 20:47:00,
2013-08-12 16:52:00,78.4,50.0,30.07,SSE,158,2.0,5.0,37,0.00,,,0.00,meteohub,2013-08-12 20:52:00,
2013-08-12 16:57:00,77.5,52.7,30.08,SSE,158,1.0,5.0,42,0.00,,,0.00,meteohub,2013-08-12 20:57:00,
2013-08-12 17:02:00,77.2,52.9,30.08,SE,135,3.0,5.0,43,0.00,,,0.00,meteohub,2013-08-12 21:02:00,
2013-08-12 17:07:00,76.1,54.5,30.09,ESE,112,3.0,6.0,47,0.00,,,0.00,meteohub,2013-08-12 21:07:00,
2013-08-12 17:12:00,75.4,54.9,30.09,South,180,4.0,6.0,49,0.00,,,0.00,meteohub,2013-08-12 21:12:00,
2013-08-12 17:17:00,74.7,55.4,30.10,SSE,158,6.0,6.0,51,0.00,,,0.00,meteohub,2013-08-12 21:17:00,
2013-08-12 17:22:00,73.9,56.3,30.11,SSE,158,4.0,6.0,54,0.00,,,0.00,meteohub,2013-08-12 21:22:00,
2013-08-12 17:27:00,73.4,56.8,30.11,SSE,158,6.0,8.0,56,0.00,,,0.00,meteohub,2013-08-12 21:27:00,
2013-08-12 17:32:00,72.9,57.7,30.11,SSE,158,3.0,8.0,59,0.00,,,0.00,meteohub,2013-08-12 21:32:00,
2013-08-12 17:37:00,72.3,57.7,30.12,ESE,112,4.0,7.0,60,0.00,,,0.00,meteohub,2013-08-12 21:37:00,
2013-08-12 17:42:00,72.0,58.6,30.12,SSE,158,8.0,8.0,63,0.00,,,0.00,meteohub,2013-08-12 21:42:00,
2013-08-12 17:47:00,71.6,57.9,30.12,South,180,5.0,8.0,62,0.00,,,0.00,meteohub,2013-08-12 21:47:00,
2013-08-12 17:52:00,71.2,58.5,30.12,South,180,4.0,9.0,64,0.00,,,0.00,meteohub,2013-08-12 21:52:00,
2013-08-12 17:57:00,70.9,58.5,30.13,SSE,158,6.0,9.0,65,0.00,,,0.00,meteohub,2013-08-12 21:57:00,
2013-08-12 18:02:00,70.7,58.8,30.13,SSE,158,4.0,9.0,66,0.00,,,0.00,meteohub,2013-08-12 22:02:00,
2013-08-12 18:07:00,70.5,58.6,30.13,SSE,158,4.0,8.0,66,0.00,,,0.00,meteohub,2013-08-12 22:07:00,
2013-08-12 18:12:00,70.5,59.0,30.13,SSE,158,3.0,8.0,67,0.00,,,0.00,meteohub,2013-08-12 22:12:00,
2013-08-12 18:17:00,70.5,59.0,30.13,SSE,158,4.0,6.0,67,0.00,,,0.00,meteohub,2013-08-12 22:17:00,
2013-08-12 18:22:00,70.7,59.5,30.13,SSE,158,4.0,4.0,68,0.00,,,0.00,meteohub,2013-08-12 22:22:00,
2013-08-12 18:27:00,70.5,59.5,30.13,SSE,158,4.0,6.0,68,0.00,,,0.00,meteohub,2013-08-12 22:27:00,
2013-08-12 18:32:00,70.3,59.4,30.13,SE,135,3.0,6.0,68,0.00,,,0.00,meteohub,2013-08-12 22:32:00,
2013-08-12 18:37:00,70.2,59.2,30.13,SSE,158,3.0,6.0,68,0.00,,,0.00,meteohub,2013-08-12 22:37:00,
2013-08-12 18:42:00,70.0,59.0,30.10,ESE,112,3.0,6.0,68,0.00,,,0.00,meteohub,2013-08-12 22:42:00,
2013-08-12 18:47:00,69.8,59.2,30.10,SSE,158,0.0,4.0,69,0.00,,,0.00,meteohub,2013-08-12 22:47:00,
2013-08-12 18:53:00,69.8,59.2,30.10,SSE,158,0.0,4.0,69,0.00,,,0.00,meteohub,2013-08-12 22:53:00,
2013-08-12 18:58:00,69.8,59.5,30.10,WNW,292,1.0,4.0,70,0.00,,,0.00,meteohub,2013-08-12 22:58:00,
2013-08-12 19:03:00,69.6,59.4,30.10,NW,315,0.0,3.0,70,0.00,,,0.00,meteohub,2013-08-12 23:03:00,
2013-08-12 19:08:00,69.4,59.2,30.11,North,-999,-999.0,3.0,70,0.00,,,0.00,meteohub,2013-08-12 23:08:00,
2013-08-12 19:13:00,69.1,58.8,30.11,NNW,338,2.0,3.0,70,0.00,,,0.00,meteohub,2013-08-12 23:13:00,
2013-08-12 19:18:00,68.9,58.6,30.11,NNE,22,3.0,3.0,70,0.00,,,0.00,meteohub,2013-08-12 23:18:00,
2013-08-12 19:23:00,68.5,59.2,30.11,NW,315,3.0,4.0,72,0.00,,,0.00,meteohub,2013-08-12 23:23:00,
2013-08-12 19:28:00,67.8,58.5,30.12,NNE,22,2.0,4.0,72,0.00,,,0.00,meteohub,2013-08-12 23:28:00,
2013-08-12 19:33:00,67.5,58.1,30.12,NNE,22,3.0,4.0,72,0.00,,,0.00,meteohub,2013-08-12 23:33:00,
2013-08-12 19:38:00,67.1,57.7,30.12,NW,315,3.0,5.0,72,0.00,,,0.00,meteohub,2013-08-12 23:38:00,
2013-08-12 19:43:00,66.6,57.2,30.16,NW,315,4.0,5.0,72,0.00,,,0.00,meteohub,2013-08-12 23:43:00,
2013-08-12 19:48:00,65.8,56.5,30.17,NW,315,3.0,5.0,72,0.00,,,0.00,meteohub,2013-08-12 23:48:00,
2013-08-12 19:53:00,65.7,56.5,30.17,NW,315,3.0,4.0,72,0.00,,,0.00,meteohub,2013-08-12 23:53:00,
2013-08-12 19:58:00,65.5,56.7,30.14,WNW,292,0.0,4.0,73,-99.99,,,0.00,meteohub,2013-08-12 23:58:00,
2013-08-12 20:03:00,65.5,57.0,30.14,WNW,292,2.0,4.0,74,-99.99,,,0.00,meteohub,2013-08-13 00:03:00,
2013-08-12 20:08:00,65.5,57.4,30.14,NNW,338,2.0,3.0,75,0.00,,,0.54,meteohub,2013-08-13 00:08:00,
2013-08-12 20:13:00,65.5,58.1,30.14,NW,315,3.0,3.0,77,0.00,,,0.54,meteohub,2013-08-13 00:13:00,
2013-08-12 20:18:00,65.5,58.8,30.14,WNW,292,2.0,4.0,79,0.00,,,0.54,meteohub,2013-08-13 00:18:00,
2013-08-12 20:23:00,65.5,58.8,30.14,WNW,292,2.0,4.0,79,0.00,,,0.54,meteohub,2013-08-13 00:23:00,
2013-08-12 20:28:00,65.3,59.0,30.14,WNW,292,2.0,4.0,80,0.00,,,0.54,meteohub,2013-08-13 00:28:00,
2013-08-12 20:33:00,65.1,59.2,30.14,ENE,68,4.0,4.0,81,0.00,,,0.54,meteohub,2013-08-13 00:33:00,
2013-08-12 20:38:00,64.9,59.0,30.14,NW,315,3.0,4.0,81,0.00,,,0.54,meteohub,2013-08-13 00:38:00,
2013-08-12 20:43:00,64.9,59.4,30.14,NW,315,2.0,4.0,82,0.00,,,0.54,meteohub,2013-08-13 00:43:00,
2013-08-12 20:48:00,64.9,59.4,30.14,NW,315,4.0,4.0,82,0.00,,,0.54,meteohub,2013-08-13 00:48:00,
2013-08-12 20:53:00,64.9,59.7,30.14,NW,315,2.0,4.0,83,0.00,,,0.54,meteohub,2013-08-13 00:53:00,
2013-08-12 20:58:00,65.1,59.9,30.14,NW,315,2.0,4.0,83,0.00,,,0.54,meteohub,2013-08-13 00:58:00,
2013-08-12 21:03:00,65.1,60.1,30.14,WNW,292,2.0,4.0,84,0.00,,,0.54,meteohub,2013-08-13 01:03:00,
2013-08-12 21:08:00,65.1,60.4,30.14,NW,315,3.0,4.0,85,0.00,,,0.54,meteohub,2013-08-13 01:08:00,
2013-08-12 21:13:00,65.1,60.4,30.14,WNW,292,3.0,5.0,85,0.00,,,0.54,meteohub,2013-08-13 01:13:00,
2013-08-12 21:18:00,64.9,60.6,30.14,NW,315,2.0,5.0,86,0.00,,,0.54,meteohub,2013-08-13 01:18:00,
2013-08-12 21:23:00,64.9,60.3,30.14,WNW,292,2.0,5.0,85,0.00,,,0.54,meteohub,2013-08-13 01:23:00,
2013-08-12 21:28:00,64.9,60.3,30.14,WNW,292,2.0,4.0,85,0.00,,,0.54,meteohub,2013-08-13 01:28:00,
2013-08-12 21:33:00,64.9,60.3,30.14,NW,315,2.0,4.0,85,0.00,,,0.54,meteohub,2013-08-13 01:33:00,
2013-08-12 21:38:00,64.9,60.3,30.14,WNW,292,2.0,3.0,85,0.00,,,0.54,meteohub,2013-08-13 01:38:00,
2013-08-12 21:43:00,64.9,60.3,30.14,WNW,292,2.0,3.0,85,0.00,,,0.54,meteohub,2013-08-13 01:43:00,
2013-08-12 21:48:00,64.9,60.3,30.14,WNW,292,3.0,3.0,85,0.00,,,0.54,meteohub,2013-08-13 01:48:00,
2013-08-12 21:53:00,64.8,60.1,30.14,WNW,292,3.0,3.0,85,0.00,,,0.54,meteohub,2013-08-13 01:53:00,
2013-08-12 21:58:00,64.8,60.1,30.14,WNW,292,2.0,4.0,85,0.00,,,0.54,meteohub,2013-08-13 01:58:00,
2013-08-12 22:03:00,64.8,60.1,30.14,WNW,292,3.0,4.0,85,0.00,,,0.54,meteohub,2013-08-13 02:03:00,
2013-08-12 22:08:00,64.8,60.1,30.14,WNW,292,3.0,4.0,85,0.00,,,0.54,meteohub,2013-08-13 02:08:00,
2013-08-12 22:13:00,64.8,60.1,30.14,WNW,292,3.0,3.0,85,0.00,,,0.54,meteohub,2013-08-13 02:13:00,
2013-08-12 22:18:00,64.9,60.3,30.14,WNW,292,1.0,3.0,85,0.00,,,0.54,meteohub,2013-08-13 02:18:00,
2013-08-12 22:23:00,64.8,60.1,30.14,NW,315,2.0,3.0,85,0.00,,,0.54,meteohub,2013-08-13 02:23:00,
2013-08-12 22:28:00,64.8,60.1,30.17,West,270,0.0,3.0,85,0.00,,,0.54,meteohub,2013-08-13 02:28:00,
2013-08-12 22:33:00,64.8,60.1,30.17,WNW,292,0.0,3.0,85,0.00,,,0.54,meteohub,2013-08-13 02:33:00,
2013-08-12 22:38:00,64.8,60.1,30.17,NW,315,2.0,3.0,85,0.00,,,0.54,meteohub,2013-08-13 02:38:00,
2013-08-12 22:43:00,64.8,60.1,30.14,West,270,1.0,3.0,85,0.00,,,0.54,meteohub,2013-08-13 02:43:00,
2013-08-12 22:48:00,64.8,60.1,30.14,West,270,2.0,3.0,85,0.00,,,0.54,meteohub,2013-08-13 02:48:00,
2013-08-12 22:53:00,64.9,60.3,30.14,North,-999,-999.0,3.0,85,0.00,,,0.54,meteohub,2013-08-13 02:53:00,
2013-08-12 22:58:00,65.1,60.8,30.17,NW,315,3.0,3.0,86,0.00,,,0.54,meteohub,2013-08-13 02:58:00,
2013-08-12 23:03:00,65.1,60.8,30.17,North,-999,-999.0,3.0,86,0.00,,,0.54,meteohub,2013-08-13 03:03:00,
2013-08-12 23:08:00,64.9,60.3,30.17,WNW,292,2.0,3.0,85,0.00,,,0.54,meteohub,2013-08-13 03:08:00,
2013-08-12 23:13:00,64.8,60.1,30.14,North,-999,-999.0,3.0,85,0.00,,,0.54,meteohub,2013-08-13 03:13:00,
2013-08-12 23:18:00,64.8,59.9,30.14,North,-999,-999.0,2.0,84,0.00,,,0.54,meteohub,2013-08-13 03:18:00,
2013-08-12 23:23:00,64.6,59.7,30.14,WNW,292,2.0,2.0,84,0.00,,,0.54,meteohub,2013-08-13 03:23:00,
2013-08-12 23:28:00,64.4,59.5,30.14,WNW,292,2.0,2.0,84,0.00,,,0.54,meteohub,2013-08-13 03:28:00,
2013-08-12 23:33:00,64.4,59.2,30.14,North,-999,-999.0,2.0,83,0.00,,,0.54,meteohub,2013-08-13 03:33:00,
2013-08-12 23:38:00,64.6,59.7,30.14,North,-999,-999.0,2.0,84,0.00,,,0.54,meteohub,2013-08-13 03:38:00,
2013-08-12 23:43:00,64.6,59.7,30.14,NNE,22,3.0,-999.0,84,0.00,,,0.54,meteohub,2013-08-13 03:43:00,
2013-08-12 23:48:00,64.8,60.1,30.14,NNE,22,5.0,5.0,85,0.00,,,0.54,meteohub,2013-08-13 03:48:00,
2013-08-12 23:53:00,65.1,61.2,30.14,NNW,338,3.0,5.0,87,0.00,,,0.54,meteohub,2013-08-13 03:53:00,
2013-08-12 23:58:00,65.1,61.2,30.14,NW,315,3.0,5.0,87,0.00,,,0.54,meteohub,2013-08-13 03:58:00,